TimeEST,TemperatureF,Dew PointF,Humidity,Sea Level PressureIn,VisibilityMPH,Wind Direction,Wind SpeedMPH,Gust SpeedMPH,PrecipitationIn,Events,Conditions,WindDirDegrees,DateUTC
12:53 AM,64.0,60.1,87,30.23,10.0,ESE,5.8,-,N/A,,Clear,110,2013-01-29 05:53:00
1:53 AM,64.0,60.1,87,30.22,10.0,East,3.5,-,N/A,,Clear,90,2013-01-29 06:53:00
2:53 AM,64.0,61.0,90,30.21,10.0,East,3.5,-,N/A,,Clear,100,2013-01-29 07:53:00
3:53 AM,63.0,61.0,93,30.21,10.0,Calm,Calm,-,N/A,,Clear,0,2013-01-29 08:53:00
4:53 AM,63.0,61.0,93,30.20,9.0,Calm,Calm,-,N/A,,Clear,0,2013-01-29 09:53:00
5:53 AM,63.0,61.0,93,30.20,8.0,East,3.5,-,N/A,,Clear,100,2013-01-29 10:53:00
6:53 AM,63.0,62.1,97,30.21,7.0,East,3.5,-,N/A,,Clear,90,2013-01-29 11:53:00
7:53 AM,64.9,63.0,93,30.22,5.0,ENE,4.6,-,N/A,,Clear,60,2013-01-29 12:53:00
8:53 AM,70.0,64.9,84,30.23,10.0,East,6.9,-,N/A,,Clear,90,2013-01-29 13:53:00
9:53 AM,75.0,66.0,73,30.22,10.0,South,3.5,-,N/A,,Clear,190,2013-01-29 14:53:00
10:53 AM,78.1,64.9,64,30.22,10.0,SSE,8.1,-,N/A,,Scattered Clouds,160,2013-01-29 15:53:00
11:53 AM,81.0,62.1,52,30.19,10.0,SE,16.1,23.0,N/A,,Partly Cloudy,140,2013-01-29 16:53:00
12:53 PM,82.9,62.1,49,30.14,10.0,SE,12.7,18.4,N/A,,Scattered Clouds,140,2013-01-29 17:53:00
1:53 PM,84.9,61.0,44,30.11,10.0,SSE,10.4,20.7,N/A,,Partly Cloudy,150,2013-01-29 18:53:00
2:53 PM,84.0,64.9,53,30.10,10.0,WSW,11.5,-,N/A,,Mostly Cloudy,250,2013-01-29 19:53:00
3:53 PM,80.1,64.9,60,30.11,10.0,SSW,9.2,-,N/A,,Mostly Cloudy,210,2013-01-29 20:53:00
4:53 PM,79.0,64.9,62,30.11,10.0,SSW,5.8,-,N/A,,Mostly Cloudy,200,2013-01-29 21:53:00
5:53 PM,77.0,66.0,69,30.12,10.0,SSW,5.8,-,N/A,,Overcast,210,2013-01-29 22:53:00
6:53 PM,73.9,66.0,76,30.12,10.0,South,5.8,-,N/A,,Mostly Cloudy,190,2013-01-29 23:53:00
7:53 PM,73.0,66.9,81,30.13,10.0,South,3.5,-,N/A,,Mostly Cloudy,180,2013-01-30 00:53:00
8:53 PM,72.0,66.9,84,30.13,10.0,SE,3.5,-,N/A,,Partly Cloudy,130,2013-01-30 01:53:00
9:53 PM,72.0,64.9,78,30.13,10.0,SE,4.6,-,N/A,,Clear,130,2013-01-30 02:53:00
10:53 PM,71.1,64.0,78,30.12,10.0,SE,6.9,-,N/A,,Clear,140,2013-01-30 03:53:00
11:53 PM,70.0,64.0,81,30.12,10.0,SE,4.6,-,N/A,,Clear,130,2013-01-30 04:53:00